Lapse_Rate
6.7 7.0 6.8 6.8 6.9 6.9 6.7 6.2 5.6 5.5 4.9 5.6 5.4 5.1 5.7 5.1 5.8 6.0 6.5 6.2 6.0 5.6 5.7 5.6 5.7 5.8 5.8 5.7 5.6 5.3 5.7 5.7 6.1 6.3 6.0 6.2 6.5 6.3 6.1 5.7 5.7 5.8 5.7
7.0 7.2 7.2 7.2 7.2 7.1 6.9 6.6 6.4 6.1 6.0 6.2 5.9 5.6 5.9 5.8 5.5 6.2 6.3 6.3 6.1 6.1 6.1 5.7 5.6 5.9 5.9 5.9 5.8 6.0 6.0 5.9 5.7 5.7 5.4 5.7 5.9 5.8 6.0 5.8 5.9 5.7 5.7
7.2 7.3 7.5 7.3 7.2 7.3 7.1 7.1 7.0 6.6 6.1 6.0 6.0 6.2 5.8 5.8 6.4 6.2 6.3 6.3 6.1 6.1 6.1 5.9 6.0 5.8 5.8 5.9 6.0 6.1 6.0 5.9 5.8 5.4 5.9 5.9 6.0 6.0 5.7 5.6 5.8 5.8 5.7
6.9 7.4 7.4 7.4 7.4 7.6 7.5 7.3 7.1 7.0 6.6 6.5 6.5 6.3 6.1 6.0 6.0 6.0 6.1 6.1 6.0 6.0 5.9 5.9 5.8 5.7 5.6 5.7 5.4 5.5 5.7 5.7 5.9 5.6 5.6 5.7 5.8 6.0 5.7 5.8 5.6 5.4 5.5
6.6 7.4 7.7 7.6 7.7 7.9 8.0 7.8 7.4 7.2 7.1 7.1 6.9 6.7 6.6 6.5 6.3 6.2 6.1 5.9 6.0 5.8 6.0 5.9 5.9 5.9 5.9 5.8 5.7 5.9 5.9 6.0 5.9 5.7 5.6 5.7 5.8 5.8 5.8 5.6 5.8 5.8 5.9
6.9 7.2 7.4 7.6 7.5 7.7 7.9 7.8 7.7 7.6 7.6 7.5 7.3 7.2 6.9 6.9 6.9 6.7 6.6 6.4 6.0 5.8 6.0 5.9 6.0 6.0 6.2 6.2 6.2 6.3 6.2 6.1 6.1 6.0 5.9 5.8 5.9 6.1 6.1 5.9 5.9 5.9 5.8
7.3 7.8 8.1 8.2 7.8 7.8 7.7 7.7 7.9 7.9 7.8 7.7 7.6 7.4 7.3 7.1 7.1 7.1 6.8 6.5 6.5 6.3 6.2 6.1 6.3 6.3 6.4 6.4 6.3 6.3 6.2 6.2 6.1 6.0 5.9 5.6 5.8 5.7 5.6 5.9 5.9 5.8 6.2
7.3 7.2 7.0 7.2 7.4 7.5 7.4 7.2 7.4 7.6 7.6 7.6 7.7 7.4 7.3 7.3 7.4 7.3 7.3 6.9 6.6 6.5 6.3 6.3 6.4 6.6 6.5 6.3 6.2 6.3 6.4 6.4 6.4 6.3 6.1 6.1 6.2 6.0 5.9 5.8 5.9 6.0 6.3
7.3 6.7 6.4 6.4 6.5 6.7 6.9 7.1 7.1 7.3 7.4 7.5 7.7 7.9 7.6 7.3 7.3 7.4 7.3 7.0 6.8 6.8 6.6 6.6 6.5 6.5 6.6 6.5 6.3 6.2 6.3 6.4 6.3 6.4 6.5 6.4 6.2 6.1 6.1 5.8 6.0 6.0 6.0
7.0 7.0 6.8 6.5 6.3 6.4 6.6 6.7 6.8 6.8 7.0 7.1 7.2 7.3 7.6 7.8 7.7 7.9 7.8 7.5 7.0 6.7 6.6 6.4 6.4 6.3 6.1 6.0 6.1 6.2 6.3 6.1 6.1 6.3 6.5 6.6 6.5 6.6 6.5 6.3 6.1 6.3 6.1
6.2 6.3 6.5 6.5 6.6 6.7 6.7 6.8 6.8 6.8 6.9 7.1 7.2 7.3 7.3 7.4 7.5 7.6 7.8 7.7 7.6 7.2 6.7 6.4 6.1 6.0 6.3 6.3 6.1 6.1 5.9 6.0 6.0 6.0 6.2 6.3 6.4 6.4 6.4 6.4 6.4 6.1 6.3
5.9 6.2 6.2 6.2 6.4 6.5 6.7 6.7 6.4 6.4 6.5 7.4 7.7 7.6 7.6 7.6 7.3 7.3 7.4 7.1 7.2 6.6 6.6 6.5 6.3 6.1 6.0 5.7 6.0 5.9 5.6 5.5 5.6 5.8 6.0 6.1 6.1 6.2 6.3 6.2 6.1 6.0 5.8
4.7 4.7 5.1 5.1 5.8 5.6 6.0 6.4 6.5 6.4 6.5 7.1 7.0 7.2 6.7 6.6 6.5 6.5 6.1 6.2 6.1 6.3 6.3 6.3 6.4 6.3 6.0 5.7 5.7 6.0 5.8 5.7 5.8 6.0 6.0 5.9 6.0 6.0 6.0 6.1 6.0 6.0 6.0
4.9 4.7 4.7 4.8 5.1 5.5 5.9 6.0 6.2 6.5 6.6 6.6 6.6 6.6 6.5 6.5 6.7 6.5 6.7 6.5 6.5 6.6 6.5 6.5 6.1 6.0 5.8 5.6 5.6 5.5 5.4 5.3 5.3 5.4 5.5 5.6 5.8 5.9 6.0 5.9 6.0 6.0 6.1
5.5 5.4 5.5 5.4 5.5 5.7 6.2 6.2 5.9 5.9 6.2 6.6 6.5 6.5 6.7 6.6 6.5 6.4 6.4 6.3 6.3 6.1 5.7 5.6 5.4 5.3 5.1 5.0 4.8 4.6 4.6 4.6 4.8 4.9 4.9 5.1 5.4 5.7 5.8 5.8 5.9 6.0 6.1
6.4 6.4 6.4 6.5 6.6 6.8 6.9 6.7 6.6 6.3 6.2 6.4 6.5 6.7 6.7 6.7 6.7 6.7 6.8 6.8 6.7 6.3 6.0 5.9 5.7 5.5 5.3 5.2 5.0 4.9 4.8 4.8 4.8 5.0 5.1 5.3 5.6 5.8 5.9 6.0 6.0 6.3 6.5
7.1 7.2 7.1 7.0 6.9 6.9 6.7 6.6 6.5 6.6 6.9 7.0 7.0 7.0 7.1 7.2 7.2 7.2 7.0 6.8 6.6 6.5 5.9 5.7 5.7 5.7 5.5 5.4 5.2 5.0 5.0 5.1 5.2 5.2 5.2 5.3 5.3 5.3 5.6 6.1 6.2 6.4 6.9
6.8 6.9 6.9 6.9 6.9 6.9 6.8 6.9 6.9 6.8 6.8 6.7 6.7 6.7 6.7 6.7 6.7 6.8 6.6 6.4 5.8 5.7 5.9 5.9 5.9 5.8 5.7 5.5 5.3 5.5 5.5 5.6 5.7 5.8 5.9 5.9 5.7 5.7 5.6 5.5 5.6 5.8 6.1
6.5 6.4 6.4 6.4 6.4 6.4 6.4 6.4 6.3 6.4 6.5 6.4 6.4 6.3 6.2 6.1 6.1 5.8 5.6 5.5 5.6 5.5 5.5 5.4 5.4 5.4 5.4 5.3 5.3 5.4 5.6 5.7 5.8 5.9 6.1 6.3 6.1 6.1 6.0 5.7 5.4 5.4 5.4
6.1 6.1 6.0 6.0 6.0 6.0 5.8 5.7 5.6 5.6 5.6 5.5 5.5 5.5 5.6 5.6 5.6 5.6 5.6 5.6 5.7 5.6 5.5 5.4 5.4 5.3 5.2 5.2 5.3 5.6 5.6 5.8 5.8 5.9 6.1 6.3 6.5 6.2 6.2 6.1 6.0 5.7 5.3
6.1 6.0 5.9 5.8 5.8 5.6 5.4 5.3 5.3 5.3 5.4 5.4 5.4 5.4 5.4 5.3 5.3 5.3 5.4 5.5 5.5 5.5 5.5 5.4 5.3 5.3 5.4 5.4 5.4 5.5 5.7 5.7 5.8 5.8 6.0 6.2 6.3 6.5 6.4 6.1 6.1 6.0 5.8
6.0 6.0 5.8 5.7 5.5 5.4 5.3 5.3 5.4 5.4 5.4 5.4 5.4 5.3 5.4 5.3 5.3 5.4 5.5 5.6 5.7 5.8 5.7 5.5 5.4 5.4 5.4 5.5 5.7 5.7 5.7 5.8 5.8 5.8 5.9 5.9 6.0 6.2 6.5 6.5 6.4 6.3 6.0
5.7 5.7 5.7 5.7 5.7 5.6 5.6 5.7 5.6 5.4 5.3 5.3 5.3 5.3 5.3 5.4 5.4 5.4 5.5 5.6 5.7 5.7 5.8 5.7 5.5 5.4 5.5 5.7 5.8 5.9 5.9 5.9 6.0 6.0 5.9 5.9 5.8 5.9 6.2 6.5 6.7 6.6 6.5
5.6 5.4 5.5 5.6 5.6 5.6 5.5 5.5 5.4 5.4 5.3 5.3 5.4 5.4 5.4 5.5 5.5 5.6 5.6 5.7 5.8 5.8 5.8 5.7 5.7 5.7 5.7 5.8 5.9 6.0 6.0 6.0 6.1 6.1 6.0 5.9 5.9 5.8 6.1 6.4 6.6 6.9 6.8
5.3 5.4 5.3 5.0 4.9 4.8 4.8 4.8 4.8 4.9 4.9 5.2 5.3 5.4 5.5 5.6 5.6 5.6 5.6 5.6 5.6 5.7 5.8 5.8 5.8 5.8 5.9 5.9 6.0 6.1 6.2 6.1 6.1 6.1 6.1 6.0 5.9 5.9 5.9 6.3 6.5 6.7 7.0
4.7 4.8 4.6 4.4 4.3 4.3 4.4 4.5 4.6 4.8 4.9 5.0 5.2 5.4 5.4 5.5 5.6 5.7 5.7 5.7 5.7 5.7 5.8 5.8 5.8 5.9 6.0 6.1 6.1 6.1 6.2 6.3 6.3 6.2 6.2 6.0 6.0 5.9 5.8 6.0 6.3 6.5 6.7
Wind_Speed
8 9 8 7 6 5 6 6 4 8 10 8 10 11 9 11 12 11 12 12 14 13 14 15 17 16 12 11 11 10 10 10 12 13 12 12 13 13 16 20 23 21 22
9 8 7 7 7 7 7 7 5 6 8 11 11 10 10 7 9 12 12 12 13 15 15 15 17 11 17 14 11 14 12 12 10 17 13 11 14 13 17 15 17 20 22
9 8 7 6 6 7 6 7 6 6 6 7 7 8 11 12 12 12 13 13 14 16 16 14 16 16 13 11 12 12 12 11 11 11 13 11 10 9 12 12 12 17 22
9 8 6 5 5 5 6 7 7 7 7 6 5 7 7 8 10 12 12 13 13 13 15 14 14 15 17 16 12 14 13 11 10 10 11 12 10 11 9 10 9 9 11
8 7 7 8 7 6 5 6 7 7 8 8 8 7 6 7 6 9 11 13 12 12 12 12 12 13 15 15 10 13 12 11 10 10 10 10 10 8 7 9 9 11 14
7 8 8 8 8 7 7 8 7 7 7 8 8 8 9 6 11 10 9 9 10 11 12 15 15 14 16 17 19 19 16 13 12 10 11 11 13 10 11 11 12 11 11
9 8 8 8 7 7 7 8 8 8 6 6 7 7 9 10 15 12 9 8 9 11 11 10 9 8 10 16 15 19 19 21 22 18 17 14 14 12 13 13 12 13 14
7 7 7 7 7 8 6 6 6 7 7 7 8 8 8 6 15 15 12 8 8 10 11 11 10 10 10 10 13 15 14 13 14 13 17 19 18 17 16 13 15 16 15
8 9 9 8 8 9 8 8 7 6 6 4 7 8 9 9 16 16 11 4 4 5 6 6 6 7 12 12 7 8 10 11 13 24 29 27 25 26 23 13 12 11 13
9 9 10 9 9 7 7 8 8 6 3 6 8 9 10 8 16 18 15 5 6 6 6 7 9 11 12 10 5 7 9 9 9 10 11 11 14 16 24 16 14 13 13
9 10 12 11 10 10 9 8 7 7 6 7 9 8 8 10 11 17 17 7 6 4 5 6 5 13 11 11 7 5 8 9 9 9 9 9 10 10 8 9 13 13 13
10 10 10 13 10 10 11 10 10 8 8 8 8 7 7 8 12 14 15 13 11 6 6 6 8 15 12 7 8 12 13 8 7 7 8 7 7 7 8 9 12 11 12
10 11 10 8 10 9 11 10 8 9 8 8 7 6 7 7 8 12 12 12 11 6 5 7 7 10 12 10 15 14 10 9 9 9 8 9 10 11 12 10 10 13 14
8 8 9 10 8 9 7 7 8 7 7 7 7 8 8 8 10 10 9 9 9 8 7 7 6 6 6 6 8 10 10 10 10 9 10 10 10 9 9 10 10 11 12
9 9 9 8 10 9 8 9 8 9 10 7 7 7 8 8 9 12 11 9 8 6 5 7 9 10 10 10 10 10 9 9 8 7 8 9 10 10 10 9 10 10 11
7 7 8 7 7 7 7 6 10 11 15 18 15 12 7 13 16 16 14 17 17 12 6 8 9 9 9 10 10 10 9 10 9 9 9 9 9 9 10 10 9 9 10
8 8 6 7 7 8 8 6 6 5 9 13 15 16 16 13 16 17 14 11 14 9 7 7 8 8 8 8 9 9 9 9 11 8 9 9 9 9 10 9 9 9 9
8 8 7 7 7 7 6 6 5 6 7 7 8 11 17 17 18 18 15 6 5 7 7 8 8 9 9 9 9 9 9 9 9 8 8 8 9 9 9 9 8 7 8
6 6 5 5 5 5 5 5 5 5 5 5 6 7 9 11 9 10 9 6 7 7 7 7 7 7 8 8 9 8 10 9 9 9 8 8 8 8 9 8 8 10 9
5 6 5 4 4 4 4 4 4 5 4 5 5 6 7 6 7 7 7 7 6 6 6 6 6 7 7 8 9 9 9 9 9 9 9 8 8 7 8 8 9 8 8
2 2 2 1 3 3 3 4 4 4 4 4 4 5 7 6 6 6 6 5 5 5 5 6 6 7 7 7 8 8 9 9 9 10 9 9 8 9 9 9 9 9 10
2 1 2 1 2 2 2 2 3 3 3 4 4 3 5 4 4 4 4 4 4 4 5 5 5 5 7 7 7 7 8 9 9 10 10 9 9 9 8 8 9 8 8
4 4 4 3 4 3 4 4 4 4 4 4 4 4 3 3 4 4 4 4 4 5 6 6 5 5 9 10 10 9 7 8 8 9 9 8 7 7 7 7 7 7 8
6 6 5 4 4 4 5 5 4 5 6 5 5 5 4 4 4 5 5 4 6 6 6 7 7 8 9 10 10 11 11 11 11 11 10 7 7 6 6 6 6 7 6
7 5 5 6 6 6 5 6 6 6 6 6 6 6 5 5 5 5 5 7 7 7 7 8 7 8 8 10 10 13 14 14 12 11 9 6 6 7 5 4 5 5 5
8 8 8 7 7 7 7 7 7 7 7 6 6 6 6 6 7 6 6 6 6 7 9 9 9 9 10 9 8 13 13 13 12 11 8 6 4 4 4 4 5 3 4
Wind_Direction
346 6 14 16 7 352 17 31 283 233 231 217 210 228 201 201 200 203 216 219 222 230 226 229 238 233 238 237 234 236 238 235 249 261 265 261 248 242 240 234 241 237 243
352 359 4 2 1 15 7 358 340 343 298 229 216 209 207 196 201 210 212 212 216 224 227 228 238 240 238 239 234 230 231 234 237 257 260 261 247 251 257 257 248 243 244
350 346 359 8 11 0 350 334 327 324 315 327 273 218 222 220 208 211 215 219 224 233 232 226 231 237 228 229 226 233 234 232 231 240 256 261 256 251 257 254 253 250 250
343 336 340 359 0 351 337 326 318 317 311 302 297 312 243 225 225 230 231 228 226 231 238 235 233 236 236 239 232 231 235 240 237 239 244 255 251 250 240 251 255 236 252
341 332 340 345 349 353 343 327 322 314 306 302 305 305 321 276 243 235 236 243 239 238 237 238 236 240 242 243 245 247 243 240 239 244 247 247 248 242 228 244 243 253 254
343 342 344 348 345 346 343 331 322 311 303 299 303 307 304 297 321 275 242 259 266 252 253 252 249 235 239 231 235 244 249 250 245 247 252 247 244 243 246 238 242 250 266
346 348 349 342 345 337 329 322 321 317 307 295 296 294 292 293 5 347 320 270 266 263 265 264 262 263 243 254 242 238 245 242 241 255 260 251 256 249 250 256 242 246 252
359 354 345 345 344 337 330 331 323 315 314 303 293 284 277 36 1 349 327 274 255 257 257 259 263 269 264 257 259 264 253 241 237 240 246 254 255 256 255 255 259 259 259
359 19 17 8 7 358 353 343 336 319 312 2 42 46 81 44 6 358 339 321 311 302 309 315 334 313 32 0 331 303 291 282 268 246 249 252 247 248 248 264 263 263 266
9 24 24 16 16 5 7 2 345 328 11 82 77 67 53 45 18 10 6 22 25 355 4 359 67 20 341 330 330 311 299 298 303 307 300 285 264 259 250 247 259 261 261
22 30 37 28 34 22 23 25 27 25 56 73 76 62 54 40 24 13 15 34 18 355 359 350 4 357 334 345 355 359 314 308 293 283 282 281 282 278 265 240 242 245 252
34 38 40 37 38 35 32 29 29 36 36 40 51 54 40 29 23 12 19 21 11 14 16 4 359 339 345 347 350 345 332 309 320 310 302 301 305 309 305 300 284 265 258
32 27 31 41 38 34 41 36 35 34 33 39 35 30 28 17 10 7 11 17 21 33 16 14 350 344 355 3 358 350 339 350 338 327 321 315 314 309 309 305 295 288 284
42 37 36 41 56 54 50 46 44 36 34 34 34 25 17 18 12 8 8 12 21 26 12 22 12 9 20 355 4 9 1 353 341 336 325 319 312 310 307 310 304 302 294
50 47 48 47 47 53 62 51 50 44 41 35 27 32 18 19 12 6 16 17 11 9 352 26 26 18 11 7 2 358 355 352 344 332 323 323 323 319 313 308 306 304 294
57 50 43 46 42 44 45 53 65 50 43 40 35 33 34 29 17 16 18 24 14 356 37 33 25 17 11 1 355 351 351 345 339 329 325 321 318 318 317 316 304 305 301
46 43 48 48 49 44 44 39 35 56 78 46 29 33 32 28 24 22 20 17 23 12 37 27 20 13 2 357 352 347 340 336 332 331 327 324 322 319 320 318 318 314 313
48 43 42 41 39 38 37 37 35 30 24 21 28 22 25 23 21 20 11 1 31 36 35 24 16 9 0 358 354 348 340 336 338 337 332 330 329 326 325 328 328 327 326
45 45 42 46 42 33 35 35 32 33 31 21 8 15 21 17 11 22 14 32 25 26 21 18 6 0 355 350 349 342 341 339 338 337 336 335 337 337 338 339 342 350 355
59 44 35 37 32 29 28 26 26 28 17 13 10 9 0 0 11 11 16 19 16 11 5 359 357 356 354 350 346 343 345 344 343 343 340 340 346 346 352 354 4 8 13
61 70 24 10 31 22 15 12 8 8 3 353 352 2 350 346 359 0 2 2 357 350 347 346 346 347 346 348 349 346 347 349 346 345 342 347 345 358 4 13 25 30 32
240 244 257 296 325 309 320 318 325 322 317 316 328 321 329 319 330 335 336 333 328 328 333 331 334 337 340 342 344 346 343 344 348 347 345 349 353 2 11 22 29 32 41
233 239 241 241 245 245 252 261 264 268 278 282 291 298 306 307 306 303 307 314 316 319 325 322 321 330 337 338 343 343 339 340 335 334 337 342 353 358 2 11 20 32 40
231 235 242 256 255 257 256 262 269 263 274 279 278 278 280 282 284 286 291 296 304 308 314 312 313 322 332 338 338 340 339 336 332 333 339 338 348 358 8 10 23 29 42
229 238 238 239 241 242 247 249 254 258 262 263 264 265 271 277 279 280 284 285 289 296 299 299 302 314 319 324 330 336 336 334 337 335 337 344 347 353 13 21 14 28 43
222 226 233 236 238 240 242 245 249 252 254 254 258 262 266 268 269 272 274 274 276 279 283 285 289 296 304 308 321 331 332 335 336 340 336 339 357 356 346 10 26 24 22